Starlink 6130

operational
NORAD ID: 57104 Int'l Des: 2023-090 Owner: SPXS Country: US Constellation: starlink
LEOCIRCULAR

Starlink 6130について

説明を読み込み中...

リアルタイム位置

3D地球を読み込み中...

次回通過

高度履歴

Altitude vs Time

uPlot chart will show altitude changes over time

軌道要素

1 57104U 23090D 26037.14064239 .00000326 00000-0 39227-4 0 9996
2 57104 43.0036 86.4206 0001451 261.6837 98.3840 15.02534774145667
Epoch: Feb 6, 2026 • Age: 14 hours

現在のステータス

高度 571.4 km
速度 7.58 km/s
衛星直下点 -43.10°S, 40.18°W
打ち上げ日 Jun 23, 2023
運用期間 2.6 years
タイプ internet

技術仕様

分類 Payload
質量 305.00 kg
乾燥質量 290.00 kg
総質量 305.00 kg
長さ 0.20 m
直径 2.80 m
スパン 9.00 m
形状 Box + pan
製造者 SPXS
バスタイプ Starlink
フェーズステータス In Orbit
所有者/国 SPXS/US

大規模コンステレーション

Loading constellations...